星链-30882 (STARLINK-30882 )

导读

STARLINK-30882是美国太空探索技术公司(SpaceX)星链互联网卫星项目中的一员,于2023年11月20日发射入轨,属于低轨通信卫星。它是星链全球卫星互联网组网建设的组成部分,旨在为全球用户提供高速低延迟的宽带互联网接入服务,丰富星链星座的覆盖能力与服务容量。

Basic Information
目录编号:
58379
目录名称:
STARLINK-30882
国际标识:
2023-178F
轨道中心:
EARTH
卫星名称:
星链-30882
卫星全名:
星链-30882 (STARLINK-30882 )
卫星状态:
在轨 (已飞行1019 天)
发射日期:
2023-11-20 UTC
国别 :
美国 (US)
星等 :
--
Orbit Information
数据来源 国际轨道数据 AOE轨道数据
星历时间 2026-09-03T17:50:49+0800
1天前
查看轨道信息
2026-09-03T07:00:00+0800
1天前
查看轨道信息
半长轴 6840.878km 6840.868km
偏心率 0.0001232 0.0001444
轨道倾角 53.160° 53.161°
近地点辐角 84.393° 79.641°
升交点赤经 251.868° 253.982°
平近点角 275.721° 302.570°
近地点 461.898km 461.743km
远地点 463.584km 463.719km
周期 93.849分钟 93.848分钟
每日圈数 15.343873 15.343908
Detailed Information
固有亮度:
5
最大亮度:
0.3
卫星平台:
Starlink v2.0 mini
覆盖范围:
全球
运营商:
太空探索技术公司
运营商所在国:
美国
制造商(研发单位):
太空探索技术公司
制造商所在国:
美国
使用方式:
暂无
Satellite Introduction
星链(Starlink)计划是由太空探索技术公司(SpaceX)提出的一个巨型低轨卫星互联网星座项目,计划在2019年至2024年间在太空搭建由约1.2万颗卫星组成的“星链”网络,其中1584颗将部署在地球上空550千米处的近地轨道,并从2020年开始工作。该卫星仍在工作。
2D Orbit Map
3D Orbit Map
Orbit Altitude Analysis Chart
Orbit Inclination Analysis Chart
Orbit Comprehensive Analysis Chart
View Comprehensive Chart
Conjunction Data List
Event ID Objects TCA Miss Dist (km) Collision Risk Probability Collision Risk Index (CRI) Action
CDM_260904-223205-469505-837923
OBJECT P (54695)
2026-09-04T
22:32:58+0000
1.652 km
极远距离
4.926079E-6 低风险 0.49
CDM_260904-105004-975105-837921
2026-09-04T
10:50:42+0000
2.623 km
极远距离
1.445788E-6 低风险 0.38
CDM_260905-061805-270405-837921
2026-09-05T
06:18:39+0000
2.927 km
极远距离
1.220729E-6 低风险 0.37
CDM_260906-102505-837906-489121
OBJECT R (64891)
2026-09-06T
10:25:50+0000
2.994 km
极远距离
8.199983E-7 极低风险 0.33